Lid_Strength_Index
3 3 3 4 3 3 4 4 4 4 4 4 4 4 4 3 4 4 4 3 3 3 3 3 3 3 4 5 5 1 -1 -1 0 1 2 4 6 6 7 6 5 6 6 6 6 6 6
3 3 4 3 3 3 3 4 4 4 4 4 4 4 4 4 3 3 3 3 3 3 4 3 4 3 5 8 2 1 1 -0 1 1 2 3 4 4 6 6 6 5 5 5 5 6 6
3 3 3 3 3 3 3 4 4 4 4 4 4 4 4 4 4 3 3 4 4 4 4 3 3 4 6 5 2 1 1 1 1 1 2 2 3 4 5 7 5 5 7 6 6 5 6
4 4 4 4 4 4 4 4 4 4 4 4 5 5 4 5 5 4 4 4 4 4 3 3 2 4 7 2 1 1 1 1 -0 0 1 1 3 4 5 5 6 7 7 9 6 6 6
4 4 4 4 4 4 4 4 4 5 5 5 5 5 5 5 5 5 4 5 4 4 3 4 4 5 6 2 4 2 1 3 2 1 2 2 3 5 5 7 8 7 10 9 8 5 6
4 4 4 4 4 4 4 4 4 4 5 5 5 5 5 5 5 5 5 5 4 4 4 4 4 7 5 5 3 3 2 3 3 3 5 6 6 7 7 8 11 9 9 8 8 6 6
4 4 4 4 4 4 4 5 5 5 5 5 5 5 5 5 5 5 5 5 6 7 6 6 6 6 4 3 2 3 3 3 3 5 8 7 8 9 8 7 7 7 8 8 7 6 6
5 5 5 5 5 5 5 5 5 5 6 6 6 6 5 5 5 5 6 7 5 4 7 5 4 4 3 2 5 4 2 5 6 9 7 8 10 6 6 6 7 7 8 8 7 6 6
5 5 5 5 5 5 5 5 5 5 6 6 6 6 5 5 5 5 5 4 2 2 7 6 4 4 4 3 5 5 4 4 7 9 8 9 8 6 6 7 8 8 8 8 8 7 6
5 6 5 5 5 5 5 5 6 6 6 6 6 6 5 5 6 4 6 3 2 1 10 9 6 5 3 3 6 2 3 4 6 9 8 9 6 7 7 8 7 9 6 7 8 9 11
6 6 6 6 5 5 5 6 6 6 6 6 6 5 5 5 6 6 4 2 1 1 16 7 5 2 3 6 5 5 2 4 7 8 7 9 8 7 8 8 6 8 6 7 7 9 9
7 7 6 6 6 6 6 6 6 6 6 6 5 5 5 5 4 3 2 2 3 11 15 8 5 7 6 6 6 4 5 3 5 7 7 7 5 6 6 6 6 5 7 7 7 8 12
7 7 7 7 7 6 6 6 6 6 6 5 5 4 5 4 5 1 1 3 10 13 7 8 8 7 7 8 7 7 7 8 9 10 10 9 7 6 5 7 6 6 8 12 13 13 13
7 7 7 7 7 7 6 6 6 6 5 5 5 5 3 1 -0 0 1 7 14 10 9 6 7 8 11 9 8 8 9 10 7 8 9 11 11 7 6 7 8 8 8 12 16 15 13
7 7 7 7 7 6 6 6 6 5 4 4 5 2 2 0 -1 -0 5 12 11 8 7 8 7 9 9 9 11 11 11 9 8 7 10 11 10 6 6 6 6 8 10 7 11 11 13
8 8 7 7 6 6 5 5 4 4 4 4 4 3 3 -1 -1 2 9 11 8 6 6 6 10 9 12 10 12 13 12 9 9 6 6 8 12 7 6 6 6 7 7 11 10 18 18
7 7 6 5 5 5 5 4 4 3 4 4 3 5 1 -1 0 6 11 8 7 5 5 7 8 11 12 12 12 13 13 10 7 6 6 7 10 10 7 8 9 8 10 10 10 10 15
6 6 6 5 5 4 3 3 3 3 4 4 4 7 1 0 9 8 9 8 8 7 5 7 7 8 10 11 12 13 13 11 8 6 8 7 9 12 10 7 6 7 8 10 14 16 12
6 6 5 5 4 3 3 3 3 3 3 3 6 4 1 1 11 9 8 9 7 9 8 8 8 8 9 11 13 11 10 8 7 8 8 7 10 16 14 12 8 9 8 8 10 11 14
6 5 5 4 4 4 3 2 2 1 1 2 5 8 4 4 5 9 10 9 9 6 7 7 9 8 9 11 10 12 11 9 8 7 6 6 9 12 15 12 10 11 9 9 10 16 15
6 5 5 4 4 3 2 1 1 1 -0 1 5 7 6 10 9 8 8 7 9 10 7 7 9 9 10 13 12 13 11 10 8 7 6 7 12 10 12 10 10 11 10 10 10 10 12
6 5 4 4 3 2 1 1 -0 -0 -0 2 7 8 6 7 6 8 8 9 9 9 8 10 12 10 10 12 11 13 12 11 10 7 8 8 12 10 13 10 11 13 10 9 9 9 9
5 5 5 4 3 2 1 0 -0 -0 -1 3 2 2 6 7 8 9 10 9 9 8 8 8 9 9 11 10 8 8 8 8 8 9 10 11 10 12 14 11 11 13 10 10 9 8 8
5 5 4 3 2 1 0 -0 -0 -1 -1 1 2 3 7 10 9 10 8 8 8 8 10 8 7 10 8 7 6 7 7 8 9 9 7 10 10 10 14 11 17 10 7 7 7 7 7
5 5 4 3 2 1 0 0 -0 -1 -1 0 0 4 7 10 8 8 8 8 8 7 9 9 8 7 6 8 11 13 13 12 11 10 9 7 9 12 14 13 11 10 8 8 8 9 7
5 5 3 2 1 1 1 0 -1 -1 -1 -0 0 1 5 8 8 6 8 7 9 9 9 9 6 5 6 9 11 14 15 13 14 12 7 7 7 10 11 14 15 10 7 6 6 13 7
5 4 3 2 1 1 1 0 -1 -1 -1 -0 1 1 4 9 6 6 9 9 6 7 10 10 7 7 6 11 12 15 13 9 12 13 12 10 10 13 12 13 12 8 7 6 13 14 6
4 3 2 1 1 1 1 0 -1 -1 -0 -0 1 0 4 7 6 5 5 7 6 7 10 7 9 7 9 11 11 11 12 11 11 9 10 11 12 12 11 14 17 6 6 11 9 6 6
3 3 2 1 1 1 1 -0 -1 -1 -0 -0 2 -1 1 6 5 2 2 1 3 3 6 5 7 8 7 10 9 8 11 10 10 14 7 12 9 11 11 13 7 6 7 5 5 6 5